Krabi, Thailand

11:08 PM ICT on December 10, 2016 (GMT +0700)
Ao Nang Weather Station | | Change Station

Elev 177 ft 8.05 °N, 98.84 °E | Updated 18 seconds ago

Clear
Clear
77.4 °F
Feels Like 79 °F
N
0.0
Wind Variable Wind from North
Gusts 0.0 mph

Today
High -- | Low -- °F
--% Chance of Precip.
Yesterday
High -- | Low -- °F
Precip. -- in
Pressure 29.89 in
Visibility 5.6 miles
Clouds Scattered Clouds 1800 ft
Mostly Cloudy 10000 ft
Heat Index 79 °F
Dew Point 74 °F
Humidity 90%
Rainfall 0.00 in
Snow Depth Not available.
6:27 AM 6:07 PM
Waxing Gibbous, 84% visible
METAR VTSP 101530Z 02003KT 330V060 9000 SCT018 BKN100 27/22 Q1012 NOSIG
Pressure 29.89 in
Visibility 5.6 miles
Clouds Scattered Clouds 1800 ft
Mostly Cloudy 10000 ft
Heat Index 79 °F
Dew Point 74 °F
Humidity 90%
Rainfall 0.00 in
Snow Depth Not available.
6:27 AM 6:07 PM
Waxing Gibbous, 84% visible
METAR VTSP 101530Z 02003KT 330V060 9000 SCT018 BKN100 27/22 Q1012 NOSIG

10-Day Weather Forecast

No radar image for this location.
×

Almanac

Astronomy

Dec. 10, 2016 Rise Set
Actual Time
Civil Twilight
Nautical Twilight
Astronomical Twilight
Moon
Length of Visible Light
Length of Day
Tomorrow will be .
, % of the Moon is Illuminated

Today's Extremes

Country Highs Country Lows

Community

WunderPhotos

Upload Photos

1,956,569 photos uploaded!

WunderBlog® & News

Nearby

Air Quality

  Air Quality AQ Index Pollutant
Not available.

Snow Depth

Station Depth Elevation

Earthquake Activity

City Distance Mag. Time & Date
Minimum magnitude displayed is 2.5.

Coastal Water Temperatures

Place Temperature

Stations

Nearby Weather Stations

Station Location Temp. Windchill Dew Point Humidity Wind Precip. Elev Updated Type